Regional Weather Roundup
Issued by NWS Binghamton, NY

Home | Current Version | Previous Version | Text Only | Print | Product List | Glossary On
Versions: 1 2 3 4 5 6 7 8 9 10 11 12 13 14 15 16 17 18 19 20 21 22 23 24 25 26 27 28 29 30 31 32 33 34 35 36 37 38 39 40 41 42 43 44 45 46 47 48 49 50
000
ASUS41 KBGM 021710
RWRBGM
RWRBGM
BINGHAMTON REGIONAL WEATHER ROUNDUP
NATIONAL WEATHER SERVICE BINGHAMTON NY
100 PM EDT TUE SEP 02 2014

Note: "fair" indicates few or no clouds below 12,000 feet with no
significant weather and/or obstructions to visibility.

* = Station(s) that does not report precipitation, such as rain,
snow, etc, also no thunder or fog.

!NYZ009-015>018-022>025-036-037-044>046-055>057-062-021800
...CENTRAL NEW YORK...

CITY           SKY/WX    TMP DP  RH WIND       PRES   REMARKS
BINGHAMTON     MOSUNNY   80  68  66 SW8       29.93F
CORTLAND       FAIR      81  68  65 SW5       29.91F
DANSVILLE      MOSUNNY   82  66  58 VRB7      29.86F
ELMIRA         MOSUNNY   85  70  60 SW9       29.87F HX  89
ITHACA         PTSUNNY   84  69  60 SW7       29.90F HX  87
HAMILTON       PTSUNNY   82  68  61 W3        29.90F HX  85
MONTICELLO     CLOUDY    81  70  69 W7        29.95F
NORWICH        MOSUNNY   82  66  57 SW6       29.90F HX  85
ONEONTA        MOSUNNY   79  66  65 W6        29.94S
PENN YAN       PTSUNNY   83  68  60 SW7       29.87F HX  86
ROME           MOSUNNY   81  70  69 SW3       29.87F
SIDNEY         MOSUNNY   82  72  69 W5        29.90F HX  87
SYRACUSE       MOSUNNY   83  69  62 S6        29.83F HX  86
$$

!PAZ038>040-043-044-047-048-072-021800
...NORTHEAST PENNSYLVANIA...

CITY           SKY/WX    TMP DP  RH WIND       PRES   REMARKS
HAZLETON       MOSUNNY   79  68  69 W6        30.01F
SCRANTON       MOSUNNY   85  66  53 W13       29.93F HX  87
TOWANDA*       SUNNY     84  66  54 S5        29.88F HX  86
$$
&&
KEY
WCI = WIND CHILL INDEX
VSB = VISIBILITY
HX  = HEAT INDEX
$$


USA.gov is the U.S. government's official web portal to all federal, state and local government web resources and services.